Weather History for Scottsbluff, NE

Change the Weather History Date:

Sunday, January 26, 2014

  Actual Average Record
Temperature  
Mean Temperature 33 °F 28 °F  
Max Temperature 51 °F 41 °F 74 °F (1982)
Min Temperature 15 °F 14 °F -22 °F (1902)
Degree Days  
Heating Degree Days 32 37  
Month to date heating degree days 865 985  
Since 1 July heating degree days 3593 3757  
Cooling Degree Days 0 0  
Month to date cooling degree days 0 0  
Year to date cooling degree days 0 0  
Moisture  
Dew Point 12 °F    
Average Humidity 51    
Maximum Humidity 69    
Minimum Humidity 33    
Precipitation  
Precipitation T in 0.01 in 0.24 in (2009)
Month to date precipitation 0.30 0.34  
Year to date precipitation 0.30 0.34  
Snow  
Snow 0.00 in 0.20 in 4.10 in (2009)
Month to date snowfall 3.7 4.5  
Since 1 July snowfall 27.8 20.5  
Snow Depth 0.00 in    
Sea Level Pressure  
Sea Level Pressure 30.01 in    
Wind  
Wind Speed 18 mph (NW)    
Max Wind Speed 47 mph    
Max Gust Speed 58 mph    
Visibility 10 miles    
Events Rain    
T = Trace of Precipitation, MM = Missing Value Source: NWS Daily Summary

Daily Weather History Graph

Daily Weather History Graph

Search for Another Location

Airport:

Trip Planner

Search our weather history database for the weather conditions in past years. The results will help you decide how hot, cold, wet, or windy it might be!

Date:

Astronomy

Jan. 26, 2014 Rise Set
Actual Time 7:12 AM MST 5:02 PM MST
Civil Twilight 6:42 AM MST 5:32 PM MST
Nautical Twilight 6:08 AM MST 6:05 PM MST
Astronomical Twilight 5:35 AM MST 6:38 PM MST
Moon 2:52 AM MST (1/26) 12:52 PM MST (1/26)
Length of Visible Light 10h 49m
Length of Day
9h 49m
Waning Crescent, 23% of the Moon is Illuminated
Jan 26
Waning Crescent
Jan 30
New
Feb 6
First Quarter
Feb 14
Full
Feb 22
Last Quarter

Hourly Weather History & Observations

Time (MST) Temp. Windchill Dew Point Humidity Pressure Visibility Wind Dir Wind Speed Gust Speed Precip Events Conditions
12:53 AM 33.1 °F 25.5 °F 19.0 °F 56% 29.87 in 10.0 mi WNW 9.2 mph - N/A   Clear
1:53 AM 37.0 °F 29.3 °F 19.9 °F 50% 29.83 in 10.0 mi WNW 11.5 mph - N/A   Clear
2:53 AM 36.0 °F 31.1 °F 21.0 °F 55% 29.86 in 10.0 mi WNW 5.8 mph - N/A   Clear
3:53 AM 37.0 °F 31.0 °F 23.0 °F 57% 29.83 in 10.0 mi WNW 8.1 mph - N/A   Clear
4:53 AM 34.0 °F 27.2 °F 24.1 °F 67% 29.83 in 10.0 mi WNW 8.1 mph - N/A   Clear
5:53 AM 33.1 °F 25.5 °F 23.0 °F 66% 29.84 in 10.0 mi West 9.2 mph - N/A   Clear
6:53 AM 30.0 °F 23.2 °F 21.0 °F 69% 29.84 in 10.0 mi West 6.9 mph - N/A   Clear
7:53 AM 28.9 °F 22.8 °F 19.9 °F 69% 29.85 in 10.0 mi WNW 5.8 mph - N/A   Clear
8:53 AM 36.0 °F 30.3 °F 21.9 °F 57% 29.82 in 10.0 mi WNW 6.9 mph - N/A   Clear
9:53 AM 44.1 °F 37.4 °F 21.9 °F 42% 29.81 in 10.0 mi NW 13.8 mph - N/A   Clear
10:53 AM 48.9 °F - 21.0 °F 33% 29.80 in 10.0 mi WNW 17.3 mph 25.3 mph N/A   Scattered Clouds
11:53 AM 44.1 °F 34.4 °F 28.0 °F 53% 29.85 in 10.0 mi NNW 27.6 mph 35.7 mph N/A   Overcast
12:53 PM 43.0 °F 32.5 °F 26.1 °F 51% 29.87 in 10.0 mi NW 29.9 mph 39.1 mph N/A   Overcast
1:53 PM 36.0 °F 21.8 °F 25.0 °F 64% 29.94 in 7.0 mi North 36.8 mph 48.3 mph 0.00 in Rain Light Rain
2:53 PM 30.9 °F 15.1 °F 12.0 °F 46% 30.03 in 5.0 mi North 35.7 mph 51.8 mph 0.00 in   Haze
3:53 PM 28.9 °F 15.1 °F 3.0 °F 33% 30.10 in 10.0 mi NNW 23.0 mph 44.9 mph N/A   Overcast
4:53 PM 26.1 °F 12.3 °F 1.0 °F 34% 30.17 in 10.0 mi NNW 19.6 mph 40.3 mph N/A   Overcast
5:53 PM 23.0 °F 5.7 °F -0.9 °F 35% 30.23 in 10.0 mi NNW 28.8 mph 39.1 mph N/A   Overcast
6:53 PM 21.0 °F 4.3 °F 1.0 °F 42% 30.28 in 10.0 mi NNW 24.2 mph 31.1 mph N/A   Overcast
7:53 PM 19.0 °F 2.4 °F 1.0 °F 46% 30.31 in 10.0 mi North 21.9 mph 28.8 mph N/A   Overcast
8:53 PM 18.0 °F -0.2 °F -2.9 °F 40% 30.30 in 10.0 mi NNW 25.3 mph 31.1 mph N/A   Overcast
9:53 PM 16.0 °F -0.9 °F -6.0 °F 38% 30.29 in 10.0 mi NNW 19.6 mph 26.5 mph N/A   Overcast
10:53 PM 16.0 °F 0.6 °F -7.1 °F 36% 30.29 in 10.0 mi NNW 16.1 mph - N/A   Overcast
11:53 PM 15.1 °F -1.1 °F -13.0 °F 28% 30.32 in 10.0 mi NNW 17.3 mph - N/A   Overcast